GW0780 Weather Reports


time (UTC)temp
F
wind
direction
speed
knots
gust
knots
rain 1hr
in
rain 24hr
in
rain mn
in
humidity
%
barometer
mb
20260902034517 54 0.0 0.0 0.00 0.00 0.00 95 1022.1
20260902033520 55 0.0 0.0 0.00 0.00 0.00 95 1022.1
20260902032523 55 0.0 0.0 0.00 0.00 0.00 95 1022.1
20260902031526 55 0.0 0.0 0.00 0.00 0.00 95 1022.1
20260902030530 55 0.0 0.0 0.00 0.00 0.00 95 1022.0
20260902025515 55 0.0 0.0 0.00 0.00 0.00 94 1022.1
20260902024519 55 0.0 0.0 0.00 0.00 0.00 94 1022.0
20260902023522 56 0.0 0.0 0.00 0.00 0.00 94 1022.1
20260902022519 56 0.0 0.0 0.00 0.00 0.00 94 1022.1
20260902021516 56 0.0 0.0 0.00 0.00 0.00 94 1022.1
20260902020532 56 0.0 0.0 0.00 0.00 0.00 94 1022.1
20260902015516 57 0.0 0.0 0.00 0.00 0.00 94 1022.1
20260902014520 57 0.0 0.0 0.00 0.00 0.00 94 1022.0
20260902013543 57 0.0 0.0 0.00 0.00 0.00 93 1022.0
20260902012526 57 0.0 0.0 0.00 0.00 0.00 93 1022.0
20260902011609 58 0.0 0.0 0.00 0.00 0.00 93 1021.9
20260902010532 58 0.0 0.0 0.00 0.00 0.00 93 1021.8
20260902005518 58 0.0 0.0 0.00 0.00 0.00 93 1021.7
20260902004521 58 0.0 0.0 0.00 0.00 0.00 92 1021.6
20260902003544 59 0.0 0.0 0.00 0.00 0.00 92 1021.5
20260902002548 59 0.0 0.0 0.00 0.00 0.00 91 1021.4
20260902001531 60 0.0 0.0 0.00 0.00 0.00 91 1021.4
20260902000516 60 0.0 0.0 0.00 0.00 0.00 91 1021.5
20260901235519 61 0.0 0.0 0.00 0.00 0.00 90 1021.3
20260901234522 61 0.0 0.0 0.00 0.00 0.00 89 1021.5
20260901233525 62 0.0 0.0 0.00 0.00 0.00 88 1021.3
20260901232529 62 0.0 0.0 0.00 0.00 0.00 88 1021.2
20260901231525 63 203 0.0 0.9 0.00 0.00 0.00 86 1021.2
20260901230522 64 0.0 0.0 0.00 0.00 0.00 85 1021.2
20260901225518 65 0.0 0.0 0.00 0.00 0.00 83 1021.0
20260901224516 65 201 0.9 2.6 0.00 0.00 0.00 82 1021.0
20260901223519 66 202 1.7 3.5 0.00 0.00 0.00 81 1020.7
20260901222522 66 198 1.7 3.5 0.00 0.00 0.00 79 1020.7
20260901221605 67 160 1.7 2.6 0.00 0.00 0.00 77 1020.6
20260901220528 67 203 2.6 3.5 0.00 0.00 0.00 77 1020.6
20260901215532 68 177 2.6 3.5 0.00 0.00 0.00 76 1020.6
20260901214517 68 171 2.6 3.5 0.00 0.00 0.00 75 1020.5
20260901213520 68 178 2.6 5.2 0.00 0.00 0.00 75 1020.5
20260901212524 69 207 2.6 3.5 0.00 0.00 0.00 74 1020.5
20260901211527 69 183 2.6 4.3 0.00 0.00 0.00 73 1020.4
20260901210550 69 180 3.5 5.2 0.00 0.00 0.00 72 1020.2
20260901205515 70 185 2.6 4.3 0.00 0.00 0.00 71 1020.1
20260901204539 70 203 3.5 6.1 0.00 0.00 0.00 69 1020.0
20260901203523 71 224 3.5 7.0 0.00 0.00 0.00 68 1019.8
20260901202526 72 181 4.3 7.0 0.00 0.00 0.00 67 1019.8
20260901201528 72 200 3.5 4.3 0.00 0.00 0.00 66 1020.0
20260901200532 74 173 3.5 6.1 0.00 0.00 0.00 63 1020.1
20260901195515 74 205 4.3 7.0 0.00 0.00 0.00 62 1020.1
20260901194518 74 189 5.2 7.0 0.00 0.00 0.00 62 1020.2
20260901193521 74 215 4.3 7.8 0.00 0.00 0.00 62 1020.1
20260901192519 74 168 5.2 7.0 0.00 0.00 0.00 62 1020.1
20260901191516 75 191 4.3 6.1 0.00 0.00 0.00 61 1020.1
20260901190531 74 209 4.3 6.1 0.00 0.00 0.00 61 1020.1
20260901185516 75 143 4.3 7.0 0.00 0.00 0.00 61 1020.1
20260901184520 74 173 5.2 7.0 0.00 0.00 0.00 63 1020.1
20260901183523 74 194 5.2 7.0 0.00 0.00 0.00 63 1020.0
20260901182526 75 219 4.3 5.2 0.00 0.00 0.00 62 1020.0
20260901181529 76 139 4.3 7.0 0.00 0.00 0.00 62 1020.0
20260901180553 75 186 3.5 6.1 0.00 0.00 0.00 63 1020.0
20260901175538 76 201 4.3 7.0 0.00 0.00 0.00 63 1019.8
20260901174521 75 150 4.3 6.1 0.00 0.00 0.00 63 1020.0
20260901173523 77 184 1.7 3.5 0.00 0.00 0.00 61 1020.0
20260901172527 75 147 4.3 7.0 0.00 0.00 0.00 61 1020.0
20260901171530 76 172 3.5 5.2 0.00 0.00 0.00 59 1019.9
20260901170536 75 196 2.6 4.3 0.00 0.00 0.00 59 1019.8
20260901165519 76 154 2.6 4.3 0.00 0.00 0.00 58 1020.0
20260901164521 74 148 3.5 5.2 0.00 0.00 0.00 61 1020.0
20260901163545 74 163 1.7 3.5 0.00 0.00 0.00 62 1020.0
20260901162607 74 202 1.7 3.5 0.00 0.00 0.00 63 1020.1
20260901161524 73 152 2.6 4.3 0.00 0.00 0.00 64 1020.2
20260901160515 74 143 2.6 4.3 0.00 0.00 0.00 63 1020.2
20260901155518 73 198 2.6 4.3 0.00 0.00 0.00 64 1020.3
20260901154536 73 221 3.5 4.3 0.00 0.00 0.00 66 1020.3
20260901153525 72 144 2.6 4.3 0.00 0.00 0.00 65 1020.3
20260901152528 70 198 2.6 3.5 0.00 0.00 0.00 67 1020.3
20260901151531 69 121 2.6 3.5 0.00 0.00 0.00 68 1020.4
20260901150517 69 155 2.6 3.5 0.00 0.00 0.00 68 1020.5
20260901145520 70 188 2.6 4.3 0.00 0.00 0.00 68 1020.5
20260901144543 69 132 2.6 4.3 0.00 0.00 0.00 67 1020.5
20260901143547 70 149 3.5 3.5 0.00 0.00 0.00 67 1020.6
20260901142530 70 159 2.6 3.5 0.00 0.00 0.00 68 1020.7
20260901141515 68 103 2.6 3.5 0.00 0.00 0.00 69 1020.7
20260901140538 68 181 2.6 4.3 0.00 0.00 0.00 69 1020.6
20260901135522 67 89 3.5 3.5 0.00 0.00 0.00 70 1020.7
20260901134525 68 132 3.5 5.2 0.00 0.00 0.00 69 1020.6
20260901133528 68 151 3.5 5.2 0.00 0.00 0.00 69 1020.5
20260901132531 67 130 2.6 3.5 0.00 0.00 0.00 72 1020.4
20260901131517 67 100 2.6 3.5 0.00 0.00 0.00 71 1020.3
20260901130539 66 127 2.6 5.2 0.00 0.00 0.00 72 1020.3
20260901125543 66 123 2.6 5.2 0.00 0.00 0.00 70 1020.3
20260901124526 66 115 2.6 3.5 0.00 0.00 0.00 71 1020.5
20260901123524 67 71 1.7 3.5 0.00 0.00 0.00 71 1020.2
20260901122515 65 75 0.9 2.6 0.00 0.00 0.00 74 1020.4
20260901121518 65 73 1.7 3.5 0.00 0.00 0.00 74 1020.4
20260901120515 64 0.0 0.0 0.00 0.00 0.00 76 1020.2
20260901115525 62 0.0 0.0 0.00 0.00 0.00 79 1020.2
20260901114528 61 0.0 0.0 0.00 0.00 0.00 83 1020.0
20260901113531 58 0.0 0.0 0.00 0.00 0.00 88 1020.0
20260901112516 56 0.0 0.0 0.00 0.00 0.00 90 1020.0
20260901111519 55 0.0 0.0 0.00 0.00 0.00 92 1019.9
20260901110523 55 0.0 0.0 0.00 0.00 0.00 92 1019.7
20260901105526 54 0.0 0.0 0.00 0.00 0.00 92 1019.6
20260901104529 52 0.0 0.0 0.00 0.00 0.00 96 1019.5
20260901103533 52 0.0 0.0 0.00 0.00 0.00 96 1019.2
20260901102517 51 0.0 0.0 0.00 0.00 0.00 96 1019.4
20260901101521 50 0.0 0.0 0.00 0.00 0.00 96 1019.3
20260901100524 50 0.0 0.0 0.00 0.00 0.00 96 1019.2
20260901095528 50 0.0 0.0 0.00 0.00 0.00 96 1019.3
20260901094529 50 0.0 0.0 0.00 0.00 0.00 96 1019.3
20260901093532 49 0.0 0.0 0.00 0.00 0.00 96 1019.5
20260901092516 49 0.0 0.0 0.00 0.00 0.00 96 1019.5
20260901091519 49 0.0 0.0 0.00 0.00 0.00 96 1019.4
20260901090522 49 0.0 0.0 0.00 0.00 0.00 96 1019.4
20260901085519 49 0.0 0.0 0.00 0.00 0.00 95 1019.5
20260901084516 49 0.0 0.0 0.00 0.00 0.00 95 1019.4
20260901083531 49 0.0 0.0 0.00 0.00 0.00 95 1019.4
20260901082517 49 0.0 0.0 0.00 0.00 0.00 95 1019.6
20260901081540 49 0.0 0.0 0.00 0.00 0.00 95 1019.6
20260901080523 49 0.0 0.0 0.00 0.00 0.00 95 1019.5
20260901075526 50 0.0 0.0 0.00 0.00 0.00 95 1019.5
20260901074530 50 0.0 0.0 0.00 0.00 0.00 95 1019.6
20260901073515 50 0.0 0.0 0.00 0.00 0.00 95 1019.5
20260901072519 50 0.0 0.0 0.00 0.00 0.00 95 1019.6
20260901071521 50 0.0 0.0 0.00 0.00 0.00 95 1019.7
20260901070524 50 0.0 0.0 0.00 0.01 0.00 95 1019.7
20260901065527 50 0.0 0.0 0.00 0.01 0.00 95 1019.7
20260901064530 50 0.0 0.0 0.00 0.01 0.00 94 1019.7
20260901063515 50 0.0 0.0 0.00 0.01 0.00 94 1019.7
20260901062518 50 0.0 0.0 0.00 0.01 0.00 94 1019.7
20260901061522 50 0.0 0.0 0.00 0.01 0.00 94 1019.6
20260901060524 51 0.0 0.0 0.00 0.01 0.00 94 1019.6
20260901055528 51 0.0 0.0 0.00 0.01 0.00 94 1019.6
20260901054525 51 0.0 0.0 0.00 0.01 0.00 94 1019.6
20260901053524 51 0.0 0.0 0.00 0.01 0.00 94 1019.7
20260901052521 51 0.0 0.0 0.00 0.01 0.00 94 1019.7
20260901051517 51 0.0 0.0 0.00 0.01 0.00 94 1019.7
20260901050533 51 0.0 0.0 0.00 0.01 0.00 94 1019.7
20260901045537 51 0.0 0.0 0.00 0.01 0.00 94 1019.6
20260901044540 51 0.0 0.0 0.00 0.01 0.00 93 1019.7
20260901043524 51 0.0 0.0 0.00 0.01 0.00 93 1019.8
20260901042527 52 0.0 0.0 0.00 0.01 0.00 93 1019.8
20260901041530 52 0.0 0.0 0.00 0.01 0.00 93 1019.9
20260901040515 52 0.0 0.0 0.00 0.01 0.00 93 1020.0
20260901035518 52 0.0 0.0 0.00 0.01 0.01 92 1020.0